sat.trackr.live / text

‹ back to catalog

STARLINK-37608

NORAD 69037 · 2026-101N

PAYLOAD ACTIVE UNKNOWN

§ Identity

Operator
Country
US
Launch date
2026-05-06
Launch site
AFWTR
Launch vehicle
Mass (kg)
RCS (m²)

Purposes: comms

External: N2YO · Heavens-Above · Gunter

§ Orbital elements

Epoch: 2026-09-19T08:06:50.021280Z

Period
93.91 min
Inclination
97.2851°
Eccentricity
0.0001903
Mean motion
15.33441164 rev/d
Perigee alt
464.3 km
Apogee alt
466.9 km
Semi-major
6,843.7 km
B*
4.3455e-4
RAAN
115.8834°
Arg perigee
93.5111°
Mean anomaly
266.6349°
Rev number
2,100

§ Raw data

STARLINK-376081 69037U 26101N   26262.33807895  .00013978  00000+0  43455-3 0  99972 69037  97.2851 115.8834 0001903  93.5111 266.6349 15.33441164 21003

JSON: /api/v1/satellites/69037 · /tle

For live sub-satellite position, see the globe view (requires WebGL).

§ Visibility from observer

Set your observer location to see the next 7 days of passes ≥ 10°. The values pass through the URL so the page stays shareable.

No JS? Fill the form by hand. The geolocation button needs JavaScript.